Temp
81 78 76 72 59 59 54 60 64 62 63 69 74 72 68 66 65 57 70 74 74 73 76 79 82 83 83 83 83 83 83 83 83 84 84 84 84 84 84 83 84 83 82 83 84 84 84 84 84
77 78 74 69 57 51 55 65 61 65 69 71 73 71 68 62 68 65 69 74 76 75 75 78 82 83 83 83 83 83 84 83 83 83 83 84 84 84 84 84 84 84 83 83 84 84 84 84 84
79 82 69 61 57 53 56 64 65 69 73 72 70 72 68 61 68 67 71 76 76 75 76 78 82 83 83 83 83 83 83 83 83 83 83 83 83 84 83 83 84 83 83 84 84 84 84 84 84
76 73 69 61 59 64 65 67 69 69 73 75 71 63 68 72 72 72 75 76 74 75 77 81 83 83 83 83 83 84 83 83 83 83 84 83 83 83 83 83 83 83 83 83 83 83 84 84 83
78 70 61 60 62 66 69 72 73 69 71 71 71 62 63 71 74 75 75 76 74 74 77 80 83 83 83 83 83 83 83 83 83 83 83 83 83 84 83 84 84 84 83 83 83 83 84 83 83
69 68 59 56 62 69 71 75 73 69 69 70 67 64 62 70 72 73 75 73 75 74 77 79 83 83 83 83 83 83 83 83 83 83 83 83 83 84 83 84 84 84 84 84 83 83 83 83 83
69 66 61 61 63 66 71 77 72 70 70 69 72 60 62 67 73 73 73 73 74 76 76 77 79 81 84 83 83 83 83 83 83 83 83 83 83 83 83 83 84 84 84 84 84 83 83 83 83
73 70 65 62 62 64 74 76 77 74 69 77 74 61 59 67 73 74 74 73 74 75 75 75 76 78 77 78 84 84 83 83 83 83 84 83 83 83 81 82 83 84 84 83 84 83 83 83 83
81 65 61 65 66 68 75 72 78 79 74 77 76 69 71 73 74 72 71 71 72 73 73 74 75 75 75 76 79 83 83 83 83 83 84 82 76 77 77 80 82 84 83 84 83 83 83 83 83
72 64 67 76 75 71 75 74 74 73 72 69 69 73 75 73 72 70 69 69 70 71 72 73 73 74 74 79 76 76 77 77 76 76 76 74 75 74 78 80 83 83 84 84 84 83 83 82 77
75 69 76 78 79 78 76 75 78 71 67 69 67 69 72 72 71 70 70 71 71 72 73 74 73 73 73 74 73 73 74 74 74 75 74 74 74 74 75 74 74 73 79 76 77 78 75 78 76
74 80 80 80 80 78 74 78 73 74 74 77 74 73 72 70 70 71 71 71 71 71 73 74 73 73 73 73 73 73 73 73 73 74 75 74 72 73 72 73 73 73 73 73 74 73 75 74 75
77 79 81 82 81 79 80 74 73 72 75 77 75 74 72 72 72 74 75 74 75 72 74 74 74 73 73 72 72 72 72 72 73 74 74 74 72 72 73 71 72 73 73 73 73 73 73 73 75
78 79 78 79 78 79 74 73 75 73 75 74 74 72 72 72 73 74 74 74 72 74 74 76 75 73 73 72 72 72 71 72 72 73 73 74 73 72 72 71 71 70 72 72 71 71 71 71 73
79 74 76 77 78 75 77 69 70 74 75 72 73 73 74 74 76 74 76 75 75 75 76 76 75 74 72 72 72 72 72 73 72 72 73 73 72 72 73 71 71 70 71 71 70 71 71 71 74
74 72 63 74 76 76 72 61 71 74 73 70 72 73 74 75 76 77 78 77 76 76 74 75 80 76 73 72 72 72 72 72 72 72 72 74 73 73 72 72 71 72 71 71 70 71 71 68 69
67 60 63 69 76 75 70 62 71 74 73 70 71 72 74 74 76 79 79 78 77 76 74 74 75 74 72 72 72 72 73 73 73 72 73 74 74 74 74 72 73 73 72 72 72 71 70 69 70
61 61 64 65 72 73 68 67 71 73 73 72 72 72 73 74 76 78 78 80 78 76 76 76 75 73 72 71 72 72 72 72 73 72 72 73 74 74 73 73 73 73 72 72 71 70 71 70 70
67 62 66 70 75 71 67 66 67 72 73 72 71 71 72 74 78 78 80 81 77 76 74 74 73 72 72 71 70 71 71 72 72 71 72 73 73 74 73 72 72 73 72 72 72 72 71 71 71
66 65 66 71 74 70 67 66 67 70 72 74 74 73 74 76 76 76 77 77 75 74 73 73 73 71 72 71 71 72 72 73 74 72 72 73 74 74 73 72 72 72 73 73 73 72 71 71 71
64 62 65 69 70 68 65 62 63 69 70 74 75 78 78 77 75 72 75 75 73 71 72 72 72 71 71 72 73 73 73 72 72 73 73 73 74 74 74 73 73 73 72 72 72 72 72 70 70
60 74 74 71 63 58 66 55 59 63 66 70 73 73 77 78 78 74 74 74 74 73 72 72 72 71 71 72 72 72 70 70 71 71 72 73 74 74 74 73 73 72 71 70 71 72 72 70 68
68 76 72 71 61 57 59 56 61 59 61 67 70 74 75 78 78 76 75 76 78 76 73 73 72 71 71 72 70 71 71 72 72 70 71 70 71 72 71 70 70 69 69 68 69 69 70 70 70
74 69 65 60 57 51 60 58 59 60 65 66 73 75 77 76 77 77 78 75 76 76 74 73 71 71 71 71 70 69 70 70 69 69 69 68 67 67 68 69 68 68 67 67 68 69 68 68 70
65 60 51 49 48 49 50 54 60 70 69 70 71 73 75 77 76 73 73 72 71 73 73 72 71 70 71 70 69 69 69 70 70 69 68 67 66 65 67 67 66 66 66 66 67 66 65 64 65
61 62 52 45 45 51 51 52 63 69 71 69 72 75 74 75 76 74 74 74 72 73 72 72 70 70 71 71 69 70 70 70 69 69 68 67 66 66 66 65 65 65 65 65 64 64 64 63 63
58 57 58 51 43 47 51 58 68 67 68 69 70 72 71 73 74 74 75 74 73 72 71 70 69 70 70 71 70 70 70 68 67 66 66 66 66 66 64 64 63 62 62 63 63 63 63 62 62
62 66 55 50 45 42 49 51 57 66 70 68 69 70 71 72 72 73 73 73 72 72 71 71 71 70 70 70 70 69 69 68 67 66 65 65 64 64 62 61 61 60 61 62 62 61 62 61 61
59 54 52 53 49 47 45 51 61 66 72 69 69 71 72 71 71 72 72 72 72 73 72 70 70 70 70 70 69 68 68 67 66 65 64 63 62 61 59 57 58 59 60 61 61 61 60 59 58
62 62 55 50 48 44 46 52 68 68 67 68 70 71 72 70 71 71 72 70 71 72 71 70 70 71 71 69 68 68 67 67 66 63 63 63 60 58 56 56 57 58 59 60 60 60 60 59 57
MSLP
1006.62 1006.97 1007.22 1007.49 1008.04 1008.00 1008.39 1008.80 1008.87 1009.33 1009.58 1009.48 1009.60 1009.95 1010.73 1011.55 1012.22 1013.47 1013.39 1013.42 1013.48 1013.70 1013.78 1013.79 1013.65 1013.76 1013.91 1014.04 1014.30 1014.49 1014.64 1014.62 1014.77 1015.05 1015.15 1015.29 1015.44 1015.47 1015.59 1015.75 1015.85 1016.07 1016.22 1016.12 1016.21 1016.26 1016.40 1016.45 1016.55
1006.78 1007.26 1007.31 1007.29 1008.10 1008.70 1008.49 1008.53 1008.89 1009.00 1009.17 1009.41 1009.79 1010.28 1010.93 1012.04 1012.59 1013.15 1013.45 1013.48 1013.41 1013.62 1013.74 1013.88 1013.83 1014.04 1014.23 1014.30 1014.54 1014.62 1014.70 1014.90 1015.09 1015.36 1015.56 1015.52 1015.68 1015.72 1015.74 1015.88 1015.98 1016.16 1016.28 1016.36 1016.48 1016.54 1016.57 1016.71 1016.86
1006.86 1006.70 1007.12 1007.26 1008.27 1008.54 1008.25 1008.34 1008.75 1009.05 1009.23 1009.53 1010.06 1010.60 1011.40 1012.43 1012.75 1013.11 1013.05 1013.33 1013.46 1013.78 1013.87 1013.89 1013.99 1014.24 1014.45 1014.65 1014.75 1014.79 1014.87 1015.14 1015.37 1015.56 1015.78 1015.71 1015.84 1015.97 1015.99 1016.08 1016.16 1016.21 1016.51 1016.48 1016.64 1016.74 1016.79 1016.98 1017.14
1006.83 1006.88 1007.09 1007.53 1008.16 1007.76 1007.48 1008.22 1008.57 1009.01 1009.47 1009.62 1010.24 1011.29 1012.02 1012.51 1012.65 1012.85 1013.04 1013.24 1013.49 1013.82 1013.90 1013.95 1014.19 1014.35 1014.63 1014.87 1014.95 1015.13 1015.15 1015.38 1015.61 1015.75 1015.89 1015.89 1016.05 1016.13 1016.20 1016.22 1016.22 1016.42 1016.67 1016.77 1016.78 1016.94 1016.99 1017.05 1017.23
1006.54 1006.74 1007.28 1007.73 1007.92 1007.76 1007.64 1008.13 1008.44 1009.05 1009.34 1009.89 1010.29 1011.68 1012.55 1012.83 1012.69 1012.97 1013.24 1013.42 1013.48 1013.88 1013.88 1013.97 1014.15 1014.33 1014.63 1014.84 1015.08 1015.30 1015.30 1015.54 1015.74 1015.86 1015.99 1015.97 1016.13 1016.30 1016.34 1016.30 1016.39 1016.52 1016.73 1016.88 1017.09 1017.16 1017.25 1017.27 1017.42
1006.28 1006.74 1007.69 1007.89 1007.80 1007.67 1007.57 1007.80 1008.28 1008.97 1009.53 1010.10 1010.78 1011.82 1013.08 1013.15 1013.10 1013.35 1013.49 1013.61 1013.57 1013.83 1013.93 1014.08 1014.16 1014.36 1014.62 1014.82 1015.05 1015.28 1015.45 1015.59 1015.73 1015.89 1015.96 1016.02 1016.19 1016.35 1016.45 1016.44 1016.51 1016.63 1016.76 1016.98 1017.15 1017.32 1017.48 1017.53 1017.65
1006.09 1006.44 1007.43 1007.69 1007.66 1007.50 1007.37 1007.32 1007.88 1008.66 1009.35 1009.87 1010.39 1012.00 1013.22 1013.39 1013.29 1013.52 1013.79 1013.96 1014.06 1014.00 1014.13 1014.11 1014.17 1014.34 1014.61 1014.87 1015.09 1015.33 1015.50 1015.63 1015.69 1015.82 1016.06 1016.22 1016.23 1016.36 1016.61 1016.53 1016.63 1016.69 1016.83 1017.02 1017.19 1017.39 1017.64 1017.82 1017.89
1005.64 1005.90 1006.92 1007.24 1007.44 1007.43 1007.30 1007.34 1007.71 1008.22 1009.04 1009.44 1009.91 1011.51 1012.71 1012.74 1013.00 1013.42 1013.89 1014.16 1014.38 1014.55 1014.44 1014.49 1014.47 1014.55 1014.70 1014.92 1015.11 1015.35 1015.61 1015.74 1015.80 1015.93 1016.05 1016.18 1016.28 1016.42 1016.85 1016.83 1016.77 1016.84 1016.87 1017.13 1017.23 1017.40 1017.63 1017.85 1018.00
1005.08 1005.76 1006.30 1006.43 1006.61 1006.85 1007.10 1007.36 1007.65 1007.99 1008.64 1009.17 1009.87 1010.61 1011.31 1012.37 1013.05 1013.51 1013.97 1014.28 1014.46 1014.49 1014.51 1014.52 1014.75 1014.93 1015.05 1015.16 1015.28 1015.41 1015.58 1015.70 1015.75 1015.92 1016.02 1016.14 1016.38 1016.66 1016.81 1016.81 1016.85 1016.79 1016.97 1017.09 1017.27 1017.45 1017.57 1017.82 1018.03
1005.11 1005.41 1005.22 1004.96 1005.35 1005.94 1006.44 1006.96 1007.48 1008.04 1008.63 1009.62 1010.23 1010.75 1011.48 1012.46 1013.01 1013.41 1013.68 1013.93 1014.22 1014.36 1014.46 1014.66 1014.76 1014.91 1015.07 1015.16 1015.34 1015.52 1015.62 1015.76 1015.90 1016.10 1016.18 1016.40 1016.58 1016.73 1016.79 1016.82 1016.84 1016.88 1016.84 1017.02 1017.07 1017.27 1017.51 1017.78 1018.06
1004.27 1004.48 1004.30 1004.49 1004.75 1005.44 1006.37 1007.19 1007.59 1008.08 1008.58 1008.85 1009.93 1010.82 1011.67 1012.37 1012.91 1013.22 1013.46 1013.55 1013.59 1013.99 1014.27 1014.38 1014.68 1014.84 1015.09 1015.21 1015.42 1015.57 1015.67 1015.85 1016.11 1016.29 1016.50 1016.60 1016.73 1016.81 1016.96 1017.02 1017.15 1017.29 1017.15 1017.25 1017.17 1017.08 1017.61 1017.63 1017.85
1003.92 1003.97 1004.03 1004.27 1004.73 1005.59 1006.40 1006.98 1007.64 1008.26 1008.24 1008.07 1009.31 1010.29 1011.38 1012.18 1012.48 1012.71 1013.10 1013.39 1013.60 1013.85 1014.07 1014.43 1014.60 1014.81 1014.91 1015.10 1015.25 1015.43 1015.82 1016.03 1016.16 1016.19 1016.36 1016.53 1016.64 1016.86 1017.01 1017.09 1017.25 1017.34 1017.33 1017.49 1017.48 1017.38 1017.58 1017.74 1017.91
1003.83 1004.05 1004.06 1004.26 1004.78 1005.49 1006.25 1007.11 1007.58 1008.35 1008.59 1008.83 1009.71 1010.62 1011.13 1011.76 1012.14 1012.37 1012.56 1013.06 1013.44 1013.55 1013.62 1013.94 1014.38 1014.63 1014.80 1015.11 1015.26 1015.61 1015.86 1016.04 1016.10 1016.08 1016.11 1016.21 1016.43 1016.69 1016.79 1017.03 1017.13 1017.32 1017.51 1017.54 1017.50 1017.56 1017.65 1017.78 1017.88
1004.14 1004.38 1004.59 1004.97 1005.38 1005.87 1006.42 1007.22 1007.47 1008.58 1008.84 1009.24 1009.79 1010.49 1010.99 1011.18 1011.36 1012.03 1012.25 1012.44 1012.86 1013.09 1013.36 1013.63 1013.99 1014.19 1014.48 1014.83 1015.00 1015.39 1015.69 1015.90 1015.94 1015.94 1016.00 1016.07 1016.18 1016.42 1016.61 1016.80 1016.97 1017.13 1017.24 1017.46 1017.51 1017.56 1017.65 1017.59 1017.57
1004.31 1004.88 1005.15 1005.48 1005.78 1006.44 1006.53 1007.45 1007.71 1008.10 1008.67 1009.25 1009.73 1010.16 1010.59 1010.75 1011.16 1010.97 1011.32 1011.81 1012.09 1012.47 1012.83 1013.12 1013.59 1013.97 1014.45 1014.79 1014.84 1015.11 1015.40 1015.54 1015.76 1015.80 1015.82 1015.92 1016.04 1016.13 1016.29 1016.47 1016.58 1016.86 1017.03 1017.17 1017.42 1017.42 1017.49 1017.66 1017.55
1005.00 1005.51 1005.90 1005.70 1005.93 1006.28 1006.83 1007.39 1007.49 1008.03 1008.78 1009.48 1009.79 1010.14 1010.28 1010.35 1010.23 1010.58 1010.69 1011.05 1011.51 1012.02 1012.52 1012.94 1013.27 1013.61 1014.00 1014.39 1014.63 1014.99 1015.24 1015.25 1015.30 1015.43 1015.62 1015.56 1015.70 1015.94 1016.01 1016.17 1016.44 1016.64 1016.74 1016.75 1017.27 1017.36 1017.62 1017.62 1017.59
1005.96 1006.00 1005.98 1005.60 1005.75 1006.17 1006.97 1007.22 1007.12 1007.84 1008.50 1009.05 1009.41 1009.49 1009.84 1009.93 1010.04 1010.24 1010.60 1010.81 1011.01 1011.34 1011.87 1012.52 1012.96 1013.38 1013.87 1014.39 1014.57 1014.82 1014.97 1015.18 1015.37 1015.37 1015.51 1015.45 1015.58 1015.70 1015.87 1016.05 1016.26 1016.33 1016.43 1016.59 1016.87 1017.06 1017.28 1017.40 1017.28
1006.14 1006.10 1005.83 1005.90 1005.82 1006.43 1006.33 1006.48 1006.97 1007.47 1008.05 1008.25 1008.74 1009.22 1009.43 1009.62 1009.54 1009.70 1009.69 1010.13 1010.64 1010.84 1011.45 1011.98 1012.72 1013.26 1013.90 1014.37 1014.65 1014.78 1015.08 1015.14 1015.17 1015.28 1015.37 1015.55 1015.68 1015.69 1015.92 1016.18 1016.24 1016.24 1016.36 1016.46 1016.59 1016.84 1016.90 1017.00 1016.95
1005.71 1005.85 1005.85 1005.47 1005.58 1005.96 1006.57 1006.66 1007.02 1007.10 1007.97 1008.32 1008.41 1008.65 1008.92 1008.86 1008.89 1009.27 1009.37 1009.66 1010.25 1010.73 1011.33 1011.76 1012.45 1012.99 1013.63 1014.23 1014.67 1015.07 1015.14 1015.14 1015.20 1015.18 1015.44 1015.60 1015.73 1015.94 1015.99 1016.17 1016.10 1016.06 1016.22 1016.39 1016.56 1016.75 1016.78 1016.64 1016.68
1005.40 1005.63 1005.52 1005.19 1005.27 1005.86 1006.28 1006.65 1006.65 1007.17 1006.78 1006.99 1007.65 1007.96 1007.90 1008.14 1008.61 1008.78 1008.94 1009.51 1010.03 1010.51 1010.98 1011.48 1012.04 1012.79 1013.35 1013.87 1014.43 1014.58 1014.67 1014.84 1014.94 1014.92 1015.41 1015.47 1015.46 1015.70 1015.82 1016.01 1016.06 1016.07 1016.21 1016.32 1016.28 1016.41 1016.49 1016.52 1016.61
1004.96 1005.26 1005.42 1005.30 1005.60 1006.31 1006.56 1006.66 1006.61 1006.37 1006.62 1006.93 1006.90 1007.03 1007.25 1007.20 1007.94 1008.37 1008.69 1009.00 1009.65 1010.14 1010.53 1010.96 1011.64 1012.35 1013.21 1013.72 1014.26 1014.54 1014.82 1014.99 1014.72 1014.47 1015.01 1015.05 1014.99 1015.40 1015.60 1015.70 1015.84 1016.20 1016.30 1016.26 1016.32 1016.34 1016.33 1016.47 1016.47
1004.39 1004.58 1004.86 1005.30 1006.13 1006.67 1006.69 1007.08 1006.78 1006.09 1006.04 1006.26 1005.98 1006.13 1006.21 1006.54 1007.20 1007.72 1008.20 1008.66 1008.94 1009.54 1010.24 1010.57 1011.28 1012.10 1012.81 1013.39 1014.10 1014.28 1014.36 1014.77 1014.64 1014.85 1015.09 1015.21 1015.17 1015.43 1015.38 1015.51 1015.76 1015.99 1016.28 1016.43 1016.56 1016.47 1016.45 1016.59 1016.74
1004.00 1004.03 1004.83 1005.31 1006.48 1007.22 1007.55 1007.80 1005.65 1005.98 1005.61 1005.10 1004.70 1004.93 1005.27 1005.59 1006.12 1006.78 1007.31 1007.58 1008.14 1009.06 1009.68 1010.39 1011.15 1011.82 1012.42 1013.19 1013.83 1014.15 1014.35 1014.42 1014.69 1015.07 1015.17 1015.37 1015.88 1015.85 1015.99 1015.95 1016.24 1016.36 1016.61 1016.71 1016.63 1016.60 1016.56 1016.60 1016.64
1003.65 1004.25 1005.39 1006.52 1007.62 1008.40 1007.24 1007.77 1005.79 1004.98 1003.67 1003.38 1003.45 1003.71 1004.35 1004.94 1005.37 1005.97 1006.50 1007.36 1008.14 1008.92 1009.57 1010.20 1011.03 1011.68 1012.25 1012.93 1013.66 1014.10 1014.11 1014.42 1014.76 1015.19 1015.45 1015.92 1016.25 1016.54 1016.61 1016.58 1016.58 1016.63 1016.82 1016.85 1016.80 1016.80 1016.70 1016.69 1016.60
1004.10 1005.38 1006.69 1008.16 1009.15 1008.82 1007.69 1007.90 1005.28 1003.15 1002.51 1002.53 1002.96 1003.05 1003.34 1003.81 1004.73 1005.63 1006.36 1007.05 1007.81 1008.54 1009.31 1009.95 1010.80 1011.59 1012.09 1012.82 1013.40 1013.83 1014.01 1014.25 1014.60 1014.95 1015.36 1016.01 1016.34 1016.76 1016.83 1016.86 1016.94 1017.07 1017.13 1017.08 1017.02 1017.23 1017.26 1017.28 1017.22
1004.22 1005.30 1006.89 1008.24 1009.45 1008.96 1008.20 1006.91 1004.25 1002.57 1001.91 1002.02 1002.19 1002.17 1002.80 1003.36 1004.03 1004.88 1005.69 1006.49 1007.33 1008.27 1009.22 1009.63 1010.55 1011.29 1011.70 1012.33 1012.90 1013.32 1013.98 1014.22 1014.53 1014.86 1015.39 1015.93 1016.32 1016.70 1016.80 1017.12 1017.22 1017.28 1017.34 1017.44 1017.56 1017.76 1017.87 1017.89 1017.88
1004.62 1005.51 1006.07 1007.86 1009.34 1009.17 1007.76 1006.07 1003.75 1002.38 1001.82 1001.86 1002.16 1002.31 1002.61 1003.06 1003.72 1004.47 1005.32 1006.16 1007.09 1007.87 1008.55 1009.23 1010.19 1010.82 1011.47 1011.98 1012.67 1013.25 1013.87 1014.29 1014.71 1015.06 1015.33 1015.94 1016.51 1016.92 1017.11 1017.29 1017.60 1017.76 1017.82 1017.81 1017.90 1018.11 1018.27 1018.33 1018.54
1003.84 1004.84 1006.52 1008.11 1009.15 1009.21 1007.75 1006.27 1004.08 1002.51 1001.63 1001.71 1002.12 1002.27 1002.78 1003.06 1003.76 1004.49 1005.19 1006.01 1006.76 1007.54 1008.18 1008.97 1009.90 1010.43 1011.15 1011.97 1012.54 1013.19 1013.64 1014.25 1014.74 1015.29 1015.80 1016.13 1016.67 1017.12 1017.52 1017.89 1018.11 1018.18 1018.12 1018.04 1018.14 1018.35 1018.57 1018.61 1018.90
1004.59 1005.21 1006.73 1007.96 1008.61 1008.74 1007.74 1005.81 1002.67 1001.97 1001.11 1001.13 1001.25 1001.51 1002.09 1002.88 1003.52 1004.22 1004.89 1005.64 1006.40 1007.20 1008.12 1009.18 1010.20 1010.75 1011.33 1011.91 1012.57 1013.31 1013.86 1014.67 1015.15 1015.81 1016.38 1016.51 1016.97 1017.45 1017.72 1017.92 1018.09 1018.24 1018.29 1018.33 1018.33 1018.63 1018.87 1018.99 1019.25
1003.54 1004.48 1005.88 1007.80 1008.81 1008.69 1007.46 1004.19 1001.41 1001.13 1001.18 1001.22 1000.90 1001.10 1001.60 1002.35 1003.14 1003.80 1004.47 1005.44 1006.29 1007.14 1007.99 1008.95 1009.90 1010.62 1011.28 1012.06 1012.84 1013.48 1014.16 1014.89 1015.47 1015.96 1016.47 1016.75 1017.05 1017.48 1017.88 1018.25 1018.34 1018.41 1018.40 1018.35 1018.43 1018.81 1019.12 1019.37 1019.65
Wind_Speed
13 6 2 2 4 6 4 4 3 9 4 1 5 3 5 4 2 4 1 4 7 6 4 6 12 13 13 13 13 13 13 14 14 12 12 12 12 12 11 10 9 8 7 7 9 7 8 9 9
8 8 1 1 6 4 4 3 7 4 5 8 6 6 4 4 4 5 7 6 7 6 5 5 11 12 12 12 12 12 13 12 11 11 10 12 10 10 9 9 9 9 8 9 10 9 10 9 9
10 3 1 4 4 2 3 6 7 5 11 4 4 7 3 2 4 6 2 10 9 5 5 6 11 11 12 11 11 11 11 11 10 10 9 11 10 9 9 8 9 9 9 10 10 10 10 9 8
4 2 1 6 5 2 4 7 11 14 7 4 6 6 4 1 4 5 10 11 9 6 5 7 11 11 10 10 10 10 10 9 9 9 9 9 9 9 9 8 7 8 9 9 9 9 9 8 8
1 1 5 3 3 2 3 9 6 11 5 6 2 4 4 3 5 12 10 8 9 7 5 7 11 11 10 9 9 9 9 8 7 7 7 5 8 7 7 8 7 8 7 9 9 9 9 8 8
1 2 5 2 3 3 2 4 6 4 5 6 6 5 2 1 10 6 6 6 6 7 6 6 11 11 10 10 10 9 8 8 7 6 4 5 6 6 6 6 6 7 8 9 9 8 8 7 6
1 4 2 2 3 2 2 5 4 5 6 3 7 5 2 3 7 5 5 5 4 4 5 4 6 9 12 10 9 8 8 7 7 6 4 4 7 7 5 6 7 7 8 9 8 7 7 6 4
2 3 4 2 4 2 3 2 9 5 4 5 8 6 7 7 9 7 6 6 5 3 3 4 4 4 5 5 9 8 7 7 6 6 6 5 5 5 7 4 6 7 7 8 8 7 5 5 3
2 4 0 5 6 6 7 4 2 5 8 3 3 5 7 14 10 8 5 4 4 4 5 4 4 3 3 3 4 7 8 6 7 6 7 5 2 2 4 3 6 6 7 6 7 8 7 5 4
3 3 5 4 6 7 10 6 5 5 4 4 6 10 17 13 12 11 9 8 7 7 5 5 5 5 3 3 3 3 3 2 2 2 2 2 2 1 1 2 5 7 7 7 7 7 6 6 2
3 4 4 2 5 12 9 5 2 7 1 7 11 18 17 14 11 11 9 9 12 7 5 7 6 5 5 4 3 2 2 2 2 2 0 1 1 1 1 1 2 2 4 2 3 1 1 2 2
3 7 1 4 8 7 11 7 5 1 4 8 17 20 17 15 13 12 10 8 7 7 8 5 6 5 6 3 3 3 2 1 2 3 3 3 2 2 2 1 2 2 1 2 2 2 2 1 2
5 3 4 6 8 8 11 4 5 3 6 13 16 15 16 14 13 10 8 8 8 8 8 8 6 6 5 5 3 3 3 2 3 3 4 3 3 3 2 2 2 2 1 2 2 2 2 2 4
2 8 5 7 7 4 9 4 3 4 10 13 16 15 14 14 15 9 9 10 10 10 7 7 8 7 6 6 5 4 2 3 4 3 3 4 3 3 3 3 3 3 2 1 2 3 3 3 3
3 6 6 4 3 4 12 2 4 8 12 14 14 13 14 14 11 15 13 11 11 9 8 10 8 7 7 6 5 3 3 3 3 4 4 4 3 3 4 3 3 4 3 4 3 3 2 3 4
4 5 2 3 4 3 2 5 5 10 12 11 11 10 12 13 15 11 10 11 10 9 10 8 8 8 8 6 4 3 3 3 3 3 3 2 2 4 4 3 3 3 4 4 3 4 4 4 4
6 2 3 5 6 5 4 6 8 12 13 11 12 12 12 11 11 10 9 9 10 11 10 9 8 8 6 5 4 4 5 3 3 2 2 3 3 4 3 2 2 3 2 3 3 3 3 3 4
4 4 1 4 2 4 4 7 10 16 16 16 14 11 11 11 14 12 12 10 8 10 9 8 7 7 6 4 3 2 2 2 2 2 2 3 2 2 1 1 2 2 2 1 1 3 2 3 3
3 2 5 3 5 5 6 5 11 16 13 12 11 10 11 13 11 8 10 11 7 7 8 9 9 8 7 3 3 1 3 2 2 3 4 3 2 1 2 2 2 2 2 2 1 1 2 1 1
3 4 4 4 8 5 6 10 6 11 19 18 14 13 14 13 10 9 10 7 9 8 8 9 9 8 6 4 2 3 3 3 2 2 3 4 4 4 4 4 3 4 2 4 3 3 1 1 1
4 4 3 6 2 2 2 5 4 7 4 7 11 13 14 16 12 9 11 12 8 10 11 10 10 11 7 7 3 1 3 2 2 2 2 2 3 3 3 3 2 3 2 1 2 2 1 1 1
6 8 6 4 3 5 2 8 5 7 10 12 15 12 14 13 10 10 13 10 11 11 8 10 10 11 9 8 5 4 4 4 2 3 2 4 5 4 1 2 3 2 2 3 2 2 2 1 2
7 3 2 4 4 2 3 2 10 1 6 17 19 18 14 12 13 14 15 16 11 10 10 8 10 10 10 10 8 5 4 3 3 3 5 6 5 6 6 6 5 5 3 3 3 3 3 1 1
1 3 6 6 4 1 8 7 10 6 10 5 15 17 17 12 12 13 13 9 7 7 7 9 11 11 11 11 8 8 6 5 4 4 4 4 3 4 4 5 4 4 4 4 3 3 4 3 2
6 7 4 4 2 8 3 4 12 12 8 8 7 11 15 16 12 11 13 13 10 12 12 10 11 10 11 12 10 6 5 6 5 4 5 5 3 2 4 5 5 4 4 5 4 4 5 5 4
6 9 8 6 5 6 2 7 12 8 7 6 4 8 8 12 13 15 16 14 13 13 11 12 11 10 11 10 8 6 5 3 3 4 6 4 4 4 5 5 5 5 5 5 5 3 4 5 6
3 3 5 7 2 2 5 8 11 6 10 5 5 5 8 11 12 14 14 14 13 12 14 14 12 9 9 9 7 6 5 5 5 6 7 5 6 5 6 6 6 5 5 5 5 4 5 6 6
5 6 3 3 3 4 5 5 8 6 11 7 8 10 8 7 8 11 12 12 11 11 11 11 11 12 10 9 8 7 7 7 7 8 8 8 7 6 6 6 5 5 5 5 5 5 6 7 5
0 1 6 5 5 6 3 9 10 11 9 9 11 9 9 10 10 11 11 11 12 12 12 12 11 12 11 10 9 9 9 8 7 8 7 7 7 6 6 5 5 5 5 5 7 6 6 8 6
6 11 7 7 4 2 3 9 5 12 4 6 10 8 6 10 11 12 13 13 13 13 12 12 12 12 11 10 10 10 10 9 9 8 7 7 9 6 6 5 5 5 5 5 6 6 6 6 7
Wind_Direction
136 116 122 146 46 58 353 67 102 112 133 253 148 111 106 48 39 156 188 163 137 141 159 142 124 118 111 115 119 121 120 110 112 122 127 134 140 144 152 157 154 156 148 127 135 149 128 128 136
129 145 189 76 72 35 318 69 91 148 141 118 113 109 61 92 103 127 133 161 140 141 149 153 127 125 124 122 129 123 115 114 119 123 130 137 137 144 153 165 163 163 144 130 129 130 131 127 134
156 182 328 77 87 83 316 66 118 124 144 125 95 46 78 77 95 151 153 147 130 130 146 154 139 136 131 132 128 121 118 122 125 126 134 129 140 146 143 155 158 141 141 130 134 137 131 134 140
166 202 8 68 105 276 135 80 112 127 166 74 112 73 73 217 131 154 144 142 133 135 137 152 149 142 139 136 127 130 122 120 124 130 132 134 143 143 150 146 135 137 140 136 127 124 130 139 143
293 78 42 58 50 49 42 122 123 140 140 114 98 108 62 8 126 137 144 139 133 138 149 145 156 151 147 139 137 133 126 119 121 121 133 144 148 146 152 155 148 147 140 132 130 137 138 145 152
31 100 51 41 35 59 94 156 132 82 92 136 90 89 100 287 135 146 137 134 135 142 152 165 165 161 161 160 149 140 129 122 122 132 155 158 134 162 159 152 150 159 155 144 145 136 136 138 153
169 80 108 129 96 38 122 131 88 100 131 98 119 94 101 150 152 121 114 109 128 143 145 159 160 170 170 166 152 148 141 140 137 145 158 193 157 172 175 167 175 178 164 151 147 141 140 143 158
227 96 120 148 176 157 137 69 123 134 69 106 146 154 181 190 158 133 127 132 139 140 158 171 167 162 158 159 165 164 159 157 152 162 173 181 193 197 133 232 197 195 183 174 162 157 155 156 165
167 58 153 181 183 142 150 131 121 102 134 107 99 138 148 145 139 129 129 132 149 176 191 182 176 177 174 150 188 174 176 178 176 186 188 196 148 61 63 209 215 215 193 191 184 184 187 188 207
115 99 226 193 152 153 162 137 140 138 128 68 70 99 131 146 157 164 166 169 178 189 193 194 187 178 172 181 184 166 196 168 174 202 203 102 144 157 202 253 225 227 220 208 213 217 208 208 176
165 170 194 89 109 137 143 136 78 118 229 184 162 144 151 159 172 178 186 184 186 189 190 192 184 176 184 196 165 181 192 192 204 231 175 126 132 167 123 280 310 0 260 291 271 269 275 240 169
91 26 22 133 116 115 147 127 96 227 286 141 147 151 155 172 183 189 188 189 182 180 197 184 191 183 197 178 194 195 196 204 222 210 211 182 192 208 206 219 249 249 213 260 256 244 229 265 258
57 19 33 110 104 124 126 89 129 78 102 120 133 154 168 178 192 199 191 184 191 201 189 191 177 190 193 196 195 204 202 207 240 238 219 198 202 210 202 201 233 238 236 255 270 294 287 255 242
82 54 64 56 75 83 119 138 81 129 136 138 153 174 180 190 192 188 194 192 185 196 195 184 190 194 186 199 186 193 181 243 242 241 237 222 216 204 205 179 198 229 206 265 264 258 283 279 238
74 69 55 39 34 98 116 119 185 156 159 159 178 184 191 200 195 201 199 200 192 199 192 190 186 181 191 208 202 179 197 221 234 240 238 227 241 213 200 193 210 223 161 213 230 262 274 280 267
75 58 74 249 142 230 84 242 191 169 162 179 188 205 208 210 212 213 196 194 188 181 185 198 202 187 187 185 184 185 209 221 228 211 215 192 208 205 206 197 209 212 196 209 152 219 229 223 248
12 204 203 288 172 159 192 229 202 175 179 194 203 201 216 225 225 218 217 204 186 191 173 185 186 182 177 173 169 189 203 215 231 191 212 241 219 193 195 192 191 186 211 207 187 223 203 207 239
249 269 245 250 180 260 220 252 182 186 190 197 204 207 210 227 226 217 210 209 187 185 180 171 174 160 143 140 135 128 179 205 193 204 179 191 188 171 190 236 190 150 152 220 213 243 191 227 262
173 233 252 233 182 153 238 264 201 201 202 205 210 212 218 220 227 220 214 209 178 169 159 169 157 164 146 145 116 162 209 177 195 210 192 183 110 156 174 242 259 241 214 233 245 291 268 269 167
180 230 277 263 168 166 170 250 231 200 212 204 206 219 219 231 212 211 219 187 180 178 170 160 161 156 151 129 160 179 159 181 160 185 200 196 196 196 185 238 255 236 237 238 236 212 229 263 181
192 179 222 240 75 59 161 279 207 231 210 213 214 214 219 218 206 191 209 199 169 178 176 170 161 152 153 150 151 118 76 56 169 178 118 208 182 202 229 217 255 289 286 299 11 12 139 245 320
268 193 205 207 109 251 5 280 214 240 227 219 222 210 214 207 192 188 198 201 192 194 174 164 151 153 162 155 179 188 168 159 199 79 105 80 69 67 85 28 56 76 64 71 52 41 79 82 300
228 226 229 201 162 98 343 60 272 189 252 225 222 213 211 205 194 183 195 205 200 169 167 162 150 161 161 172 185 201 169 145 116 107 93 83 60 66 65 72 69 61 43 13 33 15 28 126 190
185 73 46 52 91 16 218 157 284 225 221 244 221 216 202 192 196 189 193 180 184 149 154 150 160 170 166 171 181 203 181 158 140 138 115 104 97 72 64 79 77 65 42 29 25 39 43 10 359
76 61 343 2 19 219 27 113 236 286 244 235 200 218 193 184 178 167 173 177 169 167 167 159 159 170 167 172 175 193 212 177 172 150 135 139 119 100 81 82 60 52 39 37 42 47 47 33 51
182 155 157 211 199 249 344 221 253 252 288 263 219 206 178 175 176 175 181 181 174 169 165 157 160 163 165 167 172 165 192 165 140 140 132 126 116 106 91 80 72 59 51 47 46 49 51 53 53
188 168 181 114 22 109 223 287 297 270 283 262 187 180 189 177 176 178 175 175 171 166 162 160 159 153 159 159 146 147 143 130 127 122 114 117 113 112 97 86 79 62 63 65 68 68 76 72 60
150 169 73 8 175 240 275 277 241 279 277 237 204 213 185 171 159 163 165 169 165 164 151 149 163 159 151 141 140 133 123 122 119 114 119 113 103 101 94 81 73 68 64 71 87 77 76 85 61
86 331 46 123 136 173 229 262 216 231 241 231 220 204 188 173 167 162 161 167 162 158 155 141 147 143 140 137 129 126 121 117 108 109 113 120 116 111 100 99 99 84 75 79 90 90 87 80 69
173 190 146 126 242 221 173 271 196 229 238 236 249 205 191 159 164 163 163 159 165 161 145 142 144 142 137 127 124 124 118 122 122 125 128 121 116 103 104 101 103 99 98 95 90 89 85 84 71